Orbital Elements
Epoch 2021 May 26.0 TT = JDT 2459360.5
T 2021 May 22.60617 TT Rudenko
q 2.0960432 (2000.0) P Q
n 0.13363412 Peri. 214.30100 +0.48487044 -0.86824588
a 3.7889988 Node 207.14716 +0.84516962 +0.49607527
e 0.4468082 Incl. 13.31952 +0.22491993 +0.00764279
P 7.38
From 201 observations 2013 July 16-2020 Aug. 23, mean residual 0".7.
|